QPF
0.01 0.01 0.00 0.00 0.00 0.01 0.01 0.01 0.01 0.02 0.02 0.01 0.02 0.04 0.06 0.04 0.05 0.03 0.02 0.03 0.07 0.05 0.02 0.01 0.01 0.02 0.03 0.04 0.05 0.07 0.09 0.10 0.11 0.11 0.12 0.14 0.14 0.13
0.01 0.01 0.01 0.01 0.01 0.01 0.01 0.01 0.01 0.01 0.01 0.01 0.02 0.03 0.04 0.02 0.02 0.01 0.02 0.02 0.03 0.04 0.03 0.01 0.01 0.01 0.02 0.02 0.03 0.04 0.04 0.05 0.05 0.06 0.07 0.09 0.11 0.12
0.01 0.01 0.01 0.02 0.02 0.01 0.01 0.01 0.01 0.01 0.01 0.01 0.03 0.04 0.05 0.05 0.04 0.02 0.01 0.02 0.02 0.03 0.03 0.02 0.01 0.01 0.01 0.01 0.02 0.02 0.03 0.04 0.04 0.04 0.05 0.06 0.07 0.07
0.02 0.02 0.01 0.01 0.01 0.01 0.01 0.01 0.01 0.00 0.00 0.01 0.02 0.03 0.05 0.04 0.05 0.04 0.04 0.03 0.03 0.03 0.02 0.02 0.02 0.02 0.01 0.01 0.02 0.02 0.03 0.03 0.03 0.04 0.04 0.05 0.06 0.06
0.02 0.00 0.00 0.01 0.01 0.01 0.00 0.01 0.00 0.00 0.00 0.00 0.01 0.01 0.02 0.03 0.03 0.03 0.03 0.04 0.04 0.03 0.03 0.02 0.02 0.02 0.01 0.01 0.02 0.02 0.02 0.03 0.04 0.04 0.04 0.04 0.05 0.07
0.01 0.01 0.00 0.00 0.01 0.01 0.01 0.01 0.00 0.00 0.00 0.00 0.00 0.00 0.01 0.01 0.02 0.02 0.02 0.03 0.03 0.04 0.03 0.03 0.03 0.02 0.01 0.01 0.01 0.01 0.02 0.02 0.03 0.04 0.05 0.05 0.04 0.04
0.00 0.00 0.00 0.00 0.00 0.00 0.01 0.01 0.01 0.00 0.00 0.00 0.00 0.01 0.01 0.01 0.01 0.02 0.02 0.02 0.02 0.02 0.03 0.03 0.03 0.02 0.01 0.01 0.01 0.01 0.01 0.01 0.02 0.03 0.04 0.05 0.05 0.04
0.00 0.00 0.00 0.00 0.00 0.00 0.00 0.01 0.01 0.00 0.00 0.00 0.00 0.01 0.01 0.01 0.01 0.01 0.01 0.01 0.01 0.01 0.01 0.01 0.01 0.02 0.01 0.01 0.01 0.01 0.01 0.01 0.01 0.01 0.02 0.03 0.03 0.03
0.00 0.00 0.00 0.00 0.00 0.00 0.00 0.00 0.00 0.00 0.00 0.00 0.01 0.02 0.02 0.01 0.01 0.01 0.01 0.01 0.01 0.01 0.00 0.00 0.01 0.01 0.01 0.01 0.01 0.01 0.01 0.01 0.01 0.01 0.01 0.01 0.02 0.02
0.00 0.00 0.00 0.00 0.00 0.00 0.00 0.00 0.01 0.00 0.01 0.00 0.00 0.01 0.02 0.01 0.01 0.01 0.01 0.01 0.01 0.01 0.01 0.00 0.00 0.01 0.01 0.01 0.01 0.01 0.01 0.01 0.01 0.01 0.01 0.01 0.02 0.03
0.00 0.00 0.00 0.00 0.00 0.00 0.00 0.00 0.00 0.00 0.00 0.00 0.00 0.00 0.00 0.00 0.01 0.01 0.02 0.03 0.02 0.02 0.01 0.01 0.01 0.01 0.01 0.01 0.01 0.01 0.01 0.02 0.02 0.02 0.03 0.02 0.02 0.03
0.00 0.00 0.00 0.00 0.00 0.00 0.00 0.00 0.00 0.00 0.00 0.00 0.00 0.00 0.00 0.00 0.00 0.00 0.01 0.02 0.03 0.03 0.04 0.02 0.01 0.02 0.02 0.01 0.01 0.01 0.01 0.01 0.02 0.02 0.03 0.04 0.04 0.03
0.00 0.00 0.00 0.00 0.00 0.00 0.00 0.00 0.00 0.00 0.00 0.01 0.00 0.00 0.00 0.00 0.00 0.00 0.00 0.01 0.01 0.02 0.03 0.04 0.03 0.03 0.03 0.03 0.03 0.02 0.02 0.02 0.02 0.02 0.02 0.03 0.04 0.05
0.00 0.00 0.00 0.00 0.00 0.00 0.00 0.00 0.00 0.00 0.00 0.00 0.00 0.00 0.00 0.00 0.00 0.00 0.00 0.00 0.00 0.00 0.01 0.01 0.02 0.02 0.02 0.02 0.02 0.03 0.03 0.03 0.04 0.04 0.04 0.05 0.05 0.06
0.00 0.00 0.00 0.00 0.00 0.00 0.00 0.00 0.00 0.00 0.00 0.00 0.00 0.00 0.00 0.00 0.00 0.00 0.00 0.00 0.00 0.00 0.00 0.00 0.01 0.01 0.01 0.01 0.01 0.02 0.02 0.02 0.02 0.02 0.03 0.03 0.04 0.04
0.00 0.00 0.00 0.00 0.00 0.00 0.00 0.00 0.00 0.00 0.00 0.00 0.00 0.00 0.00 0.00 0.00 0.00 0.00 0.01 0.01 0.01 0.01 0.01 0.01 0.00 0.01 0.01 0.01 0.01 0.01 0.01 0.01 0.01 0.02 0.02 0.02 0.02
0.00 0.00 0.00 0.00 0.00 0.00 0.00 0.00 0.00 0.00 0.00 0.00 0.00 0.00 0.00 0.00 0.00 0.00 0.00 0.00 0.00 0.00 0.01 0.01 0.00 0.00 0.00 0.01 0.01 0.01 0.00 0.00 0.01 0.01 0.01 0.01 0.01 0.01
0.00 0.00 0.00 0.00 0.00 0.00 0.00 0.00 0.00 0.00 0.00 0.00 0.00 0.00 0.00 0.00 0.00 0.00 0.00 0.00 0.00 0.00 0.00 0.00 0.00 0.00 0.00 0.00 0.00 0.00 0.00 0.00 0.00 0.00 0.01 0.01 0.00 0.01
0.00 0.00 0.00 0.00 0.00 0.00 0.00 0.00 0.00 0.00 0.00 0.00 0.00 0.00 0.00 0.00 0.00 0.00 0.00 0.00 0.00 0.00 0.00 0.00 0.00 0.00 0.00 0.00 0.00 0.00 0.00 0.00 0.00 0.00 0.00 0.00 0.00 0.00
0.00 0.00 0.00 0.00 0.00 0.00 0.00 0.00 0.00 0.00 0.00 0.00 0.00 0.00 0.00 0.00 0.00 0.00 0.00 0.00 0.00 0.00 0.00 0.00 0.00 0.00 0.00 0.00 0.00 0.00 0.00 0.00 0.00 0.00 0.00 0.00 0.00 0.00
0.00 0.00 0.00 0.00 0.00 0.00 0.00 0.00 0.00 0.00 0.00 0.00 0.00 0.00 0.00 0.00 0.00 0.00 0.00 0.00 0.00 0.00 0.00 0.00 0.00 0.00 0.00 0.00 0.00 0.00 0.00 0.00 0.00 0.00 0.00 0.00 0.00 0.00
0.00 0.00 0.00 0.00 0.00 0.00 0.00 0.00 0.00 0.00 0.00 0.00 0.00 0.00 0.00 0.00 0.00 0.00 0.00 0.00 0.00 0.00 0.00 0.00 0.00 0.00 0.00 0.00 0.00 0.00 0.00 0.00 0.00 0.00 0.00 0.00 0.00 0.00
0.00 0.00 0.00 0.00 0.00 0.00 0.00 0.00 0.00 0.00 0.00 0.00 0.00 0.00 0.00 0.00 0.00 0.00 0.00 0.00 0.00 0.00 0.00 0.00 0.00 0.00 0.00 0.00 0.00 0.00 0.00 0.00 0.00 0.00 0.00 0.00 0.00 0.00
MSLP
1014.29 1014.45 1014.63 1014.82 1014.98 1015.10 1015.14 1015.11 1015.01 1014.85 1014.65 1014.43 1014.20 1013.98 1013.76 1013.57 1013.39 1013.23 1013.10 1012.98 1012.90 1012.84 1012.81 1012.81 1012.82 1012.85 1012.88 1012.91 1012.95 1012.99 1013.06 1013.16 1013.30 1013.48 1013.69 1013.94 1014.20 1014.47
1014.23 1014.34 1014.48 1014.63 1014.77 1014.89 1014.97 1015.00 1014.98 1014.92 1014.81 1014.67 1014.51 1014.32 1014.12 1013.90 1013.69 1013.47 1013.27 1013.09 1012.94 1012.82 1012.74 1012.70 1012.67 1012.67 1012.67 1012.67 1012.68 1012.71 1012.75 1012.82 1012.92 1013.07 1013.24 1013.45 1013.67 1013.89
1014.13 1014.20 1014.29 1014.40 1014.52 1014.64 1014.74 1014.82 1014.87 1014.90 1014.88 1014.83 1014.74 1014.61 1014.43 1014.22 1013.98 1013.73 1013.47 1013.23 1013.02 1012.85 1012.72 1012.62 1012.56 1012.51 1012.47 1012.44 1012.42 1012.41 1012.42 1012.46 1012.54 1012.65 1012.79 1012.95 1013.13 1013.30
1014.04 1014.07 1014.13 1014.20 1014.29 1014.40 1014.52 1014.64 1014.75 1014.84 1014.91 1014.94 1014.92 1014.84 1014.70 1014.50 1014.26 1013.98 1013.70 1013.41 1013.15 1012.92 1012.73 1012.58 1012.46 1012.36 1012.27 1012.20 1012.13 1012.09 1012.06 1012.07 1012.11 1012.19 1012.30 1012.43 1012.57 1012.71
1013.96 1013.98 1014.01 1014.06 1014.13 1014.23 1014.35 1014.49 1014.64 1014.78 1014.90 1014.99 1015.02 1014.99 1014.89 1014.72 1014.49 1014.21 1013.90 1013.59 1013.29 1013.01 1012.77 1012.55 1012.36 1012.19 1012.04 1011.91 1011.79 1011.69 1011.63 1011.60 1011.62 1011.67 1011.75 1011.86 1011.98 1012.10
1013.89 1013.91 1013.94 1013.98 1014.04 1014.13 1014.25 1014.39 1014.54 1014.70 1014.85 1014.97 1015.04 1015.04 1014.98 1014.83 1014.63 1014.36 1014.06 1013.74 1013.41 1013.09 1012.79 1012.51 1012.24 1012.00 1011.77 1011.56 1011.38 1011.22 1011.11 1011.04 1011.03 1011.06 1011.13 1011.23 1011.34 1011.46
1013.76 1013.81 1013.85 1013.91 1013.97 1014.06 1014.17 1014.29 1014.44 1014.59 1014.74 1014.86 1014.94 1014.97 1014.93 1014.82 1014.65 1014.41 1014.13 1013.81 1013.47 1013.12 1012.78 1012.43 1012.09 1011.77 1011.45 1011.16 1010.90 1010.68 1010.51 1010.40 1010.35 1010.36 1010.42 1010.52 1010.64 1010.77
1013.53 1013.61 1013.70 1013.78 1013.86 1013.95 1014.05 1014.16 1014.29 1014.41 1014.54 1014.65 1014.73 1014.76 1014.75 1014.67 1014.53 1014.34 1014.09 1013.79 1013.46 1013.09 1012.71 1012.32 1011.91 1011.51 1011.11 1010.73 1010.39 1010.09 1009.86 1009.70 1009.61 1009.60 1009.65 1009.75 1009.89 1010.03
1013.14 1013.28 1013.41 1013.54 1013.65 1013.76 1013.86 1013.96 1014.06 1014.16 1014.25 1014.34 1014.40 1014.44 1014.44 1014.39 1014.30 1014.14 1013.93 1013.67 1013.36 1013.00 1012.60 1012.16 1011.71 1011.24 1010.76 1010.31 1009.88 1009.52 1009.22 1009.00 1008.86 1008.82 1008.85 1008.94 1009.08 1009.25
1012.60 1012.79 1012.98 1013.16 1013.32 1013.46 1013.57 1013.67 1013.75 1013.82 1013.89 1013.95 1014.00 1014.03 1014.04 1014.03 1013.97 1013.86 1013.70 1013.47 1013.19 1012.84 1012.44 1011.99 1011.50 1010.98 1010.45 1009.94 1009.45 1009.01 1008.65 1008.37 1008.18 1008.09 1008.08 1008.15 1008.28 1008.44
1011.94 1012.18 1012.42 1012.66 1012.87 1013.05 1013.19 1013.30 1013.38 1013.44 1013.49 1013.53 1013.57 1013.60 1013.63 1013.63 1013.60 1013.53 1013.41 1013.23 1012.98 1012.66 1012.27 1011.83 1011.32 1010.78 1010.22 1009.67 1009.13 1008.64 1008.22 1007.88 1007.63 1007.47 1007.41 1007.43 1007.52 1007.65
1011.23 1011.51 1011.80 1012.09 1012.35 1012.58 1012.76 1012.90 1013.00 1013.06 1013.11 1013.14 1013.18 1013.21 1013.25 1013.27 1013.26 1013.23 1013.14 1012.99 1012.78 1012.49 1012.12 1011.69 1011.20 1010.66 1010.10 1009.53 1008.97 1008.44 1007.97 1007.57 1007.26 1007.03 1006.89 1006.84 1006.86 1006.94
1010.56 1010.86 1011.19 1011.52 1011.83 1012.11 1012.34 1012.51 1012.64 1012.72 1012.79 1012.83 1012.88 1012.92 1012.96 1012.99 1013.00 1012.98 1012.92 1012.80 1012.61 1012.35 1012.02 1011.61 1011.15 1010.64 1010.10 1009.53 1008.97 1008.43 1007.93 1007.48 1007.10 1006.80 1006.58 1006.44 1006.37 1006.37
1009.99 1010.30 1010.65 1011.01 1011.36 1011.68 1011.95 1012.17 1012.33 1012.46 1012.55 1012.62 1012.68 1012.74 1012.79 1012.83 1012.85 1012.84 1012.79 1012.68 1012.51 1012.28 1011.98 1011.61 1011.19 1010.72 1010.21 1009.68 1009.14 1008.60 1008.08 1007.60 1007.17 1006.79 1006.48 1006.24 1006.07 1005.97
1009.57 1009.88 1010.23 1010.60 1010.97 1011.32 1011.63 1011.89 1012.10 1012.26 1012.40 1012.51 1012.60 1012.68 1012.74 1012.79 1012.81 1012.80 1012.75 1012.65 1012.50 1012.28 1012.01 1011.69 1011.31 1010.90 1010.44 1009.95 1009.44 1008.92 1008.41 1007.90 1007.42 1006.98 1006.59 1006.26 1005.99 1005.78
1009.28 1009.58 1009.92 1010.29 1010.66 1011.03 1011.36 1011.65 1011.91 1012.12 1012.31 1012.46 1012.59 1012.70 1012.79 1012.85 1012.88 1012.86 1012.81 1012.71 1012.57 1012.37 1012.13 1011.84 1011.51 1011.15 1010.74 1010.31 1009.84 1009.35 1008.85 1008.33 1007.83 1007.34 1006.88 1006.47 1006.11 1005.81
1009.10 1009.38 1009.70 1010.05 1010.41 1010.77 1011.12 1011.44 1011.74 1012.01 1012.24 1012.45 1012.63 1012.78 1012.89 1012.97 1013.01 1013.00 1012.95 1012.85 1012.71 1012.53 1012.31 1012.05 1011.77 1011.45 1011.10 1010.71 1010.29 1009.83 1009.34 1008.83 1008.31 1007.80 1007.29 1006.82 1006.40 1006.02
1008.95 1009.22 1009.51 1009.83 1010.18 1010.53 1010.88 1011.23 1011.56 1011.88 1012.17 1012.43 1012.66 1012.86 1013.01 1013.11 1013.16 1013.17 1013.12 1013.03 1012.89 1012.73 1012.53 1012.30 1012.06 1011.78 1011.47 1011.12 1010.73 1010.31 1009.84 1009.34 1008.82 1008.29 1007.76 1007.25 1006.78 1006.35
1008.79 1009.04 1009.31 1009.61 1009.93 1010.27 1010.62 1010.99 1011.36 1011.72 1012.07 1012.39 1012.67 1012.91 1013.10 1013.24 1013.31 1013.33 1013.29 1013.21 1013.09 1012.93 1012.76 1012.56 1012.34 1012.09 1011.81 1011.50 1011.14 1010.73 1010.28 1009.80 1009.28 1008.74 1008.21 1007.69 1007.20 1006.74
1008.56 1008.81 1009.06 1009.34 1009.65 1009.98 1010.35 1010.73 1011.13 1011.54 1011.93 1012.31 1012.64 1012.93 1013.16 1013.32 1013.42 1013.45 1013.43 1013.36 1013.25 1013.12 1012.96 1012.78 1012.59 1012.36 1012.11 1011.81 1011.47 1011.08 1010.64 1010.16 1009.65 1009.12 1008.58 1008.06 1007.57 1007.10
1008.26 1008.51 1008.77 1009.04 1009.35 1009.69 1010.06 1010.47 1010.91 1011.35 1011.79 1012.21 1012.59 1012.91 1013.17 1013.35 1013.47 1013.52 1013.51 1013.45 1013.36 1013.25 1013.11 1012.95 1012.78 1012.57 1012.33 1012.05 1011.71 1011.33 1010.89 1010.41 1009.90 1009.38 1008.85 1008.34 1007.85 1007.38
1007.88 1008.17 1008.44 1008.74 1009.06 1009.41 1009.81 1010.25 1010.72 1011.20 1011.67 1012.12 1012.52 1012.86 1013.14 1013.33 1013.46 1013.51 1013.51 1013.47 1013.40 1013.30 1013.18 1013.05 1012.89 1012.70 1012.48 1012.20 1011.87 1011.48 1011.04 1010.56 1010.05 1009.53 1009.01 1008.50 1008.02 1007.57
1007.47 1007.80 1008.12 1008.45 1008.80 1009.19 1009.63 1010.10 1010.59 1011.10 1011.59 1012.06 1012.47 1012.81 1013.08 1013.27 1013.39 1013.45 1013.45 1013.42 1013.35 1013.28 1013.18 1013.07 1012.94 1012.77 1012.55 1012.28 1011.95 1011.56 1011.12 1010.63 1010.11 1009.59 1009.07 1008.57 1008.10 1007.66
Thickness
5675 5675 5676 5677 5679 5680 5682 5682 5680 5678 5680 5688 5693 5699 5702 5705 5708 5711 5713 5716 5717 5718 5720 5721 5722 5724 5725 5726 5727 5728 5729 5730 5730 5731 5731 5731 5731 5731
5675 5675 5675 5676 5677 5678 5679 5680 5681 5679 5677 5682 5688 5693 5697 5700 5703 5705 5707 5709 5711 5712 5714 5715 5717 5719 5720 5721 5722 5723 5724 5725 5726 5727 5727 5728 5728 5728
5674 5674 5674 5674 5674 5675 5676 5677 5677 5677 5675 5678 5683 5687 5690 5693 5696 5699 5701 5703 5705 5707 5709 5710 5712 5713 5714 5716 5717 5718 5719 5720 5722 5723 5723 5724 5725 5725
5673 5673 5672 5673 5672 5673 5673 5674 5674 5675 5674 5673 5676 5680 5684 5687 5689 5691 5694 5697 5699 5701 5703 5704 5706 5707 5709 5710 5711 5713 5714 5715 5717 5718 5719 5720 5720 5721
5672 5671 5671 5671 5670 5670 5671 5671 5671 5673 5672 5671 5672 5674 5677 5681 5683 5685 5687 5689 5692 5694 5696 5698 5699 5701 5703 5704 5705 5707 5708 5710 5711 5712 5713 5714 5715 5716
5672 5672 5671 5670 5669 5669 5669 5669 5669 5669 5669 5668 5668 5669 5671 5674 5675 5676 5677 5680 5683 5687 5689 5691 5692 5694 5696 5698 5699 5701 5702 5703 5705 5706 5707 5708 5709 5710
5672 5671 5671 5671 5670 5669 5668 5667 5666 5665 5664 5663 5663 5664 5665 5667 5668 5669 5669 5671 5675 5678 5680 5683 5685 5687 5689 5690 5692 5694 5695 5697 5698 5699 5700 5701 5702 5703
5670 5670 5670 5669 5669 5669 5669 5668 5666 5663 5661 5660 5660 5660 5661 5662 5663 5664 5663 5663 5664 5670 5671 5674 5677 5678 5681 5683 5685 5687 5688 5689 5691 5692 5693 5694 5695 5696
5670 5669 5669 5668 5667 5665 5665 5666 5665 5664 5663 5660 5658 5658 5658 5659 5659 5658 5657 5657 5658 5662 5663 5665 5669 5671 5675 5677 5679 5680 5681 5682 5683 5684 5685 5686 5687 5689
5670 5668 5667 5665 5665 5663 5662 5661 5660 5660 5660 5660 5658 5657 5657 5657 5656 5655 5654 5653 5654 5656 5657 5656 5660 5663 5668 5670 5672 5673 5674 5675 5676 5677 5677 5678 5679 5680
5669 5668 5666 5664 5664 5662 5659 5657 5656 5656 5658 5658 5657 5656 5655 5655 5653 5651 5649 5647 5646 5648 5651 5650 5652 5654 5658 5661 5664 5665 5666 5667 5668 5668 5669 5670 5671 5672
5667 5667 5666 5665 5664 5661 5657 5655 5653 5652 5652 5653 5652 5651 5651 5651 5650 5647 5645 5642 5640 5641 5644 5644 5644 5645 5647 5651 5654 5656 5657 5659 5659 5660 5662 5663 5663 5663
5665 5664 5664 5664 5662 5660 5657 5654 5652 5650 5648 5647 5646 5645 5645 5644 5644 5643 5642 5639 5636 5635 5637 5637 5637 5637 5637 5640 5643 5646 5647 5648 5650 5652 5653 5654 5655 5655
5665 5663 5662 5661 5659 5657 5654 5652 5650 5647 5643 5641 5639 5638 5637 5637 5637 5636 5636 5635 5633 5631 5631 5631 5630 5630 5630 5631 5632 5635 5637 5639 5640 5641 5643 5645 5646 5647
5663 5662 5660 5658 5656 5653 5651 5648 5645 5641 5638 5635 5633 5631 5630 5629 5629 5629 5628 5628 5627 5626 5625 5624 5623 5623 5623 5623 5623 5625 5626 5628 5629 5630 5632 5633 5634 5636
5659 5657 5656 5653 5650 5647 5645 5642 5639 5636 5633 5629 5627 5625 5623 5622 5621 5620 5618 5617 5616 5615 5616 5616 5615 5615 5614 5615 5615 5615 5615 5616 5618 5619 5621 5623 5624 5625
5652 5649 5646 5644 5641 5639 5636 5634 5632 5629 5626 5623 5620 5617 5616 5614 5612 5611 5609 5607 5605 5603 5602 5604 5606 5606 5606 5605 5605 5605 5604 5605 5606 5607 5609 5611 5613 5614
5646 5643 5640 5638 5636 5633 5630 5626 5624 5621 5619 5616 5612 5610 5607 5605 5603 5601 5599 5597 5594 5592 5591 5590 5591 5593 5593 5594 5594 5592 5591 5592 5593 5594 5596 5597 5600 5603
5639 5637 5635 5633 5630 5627 5624 5620 5617 5614 5611 5608 5605 5601 5599 5596 5593 5590 5588 5585 5583 5581 5579 5578 5578 5576 5575 5575 5578 5580 5578 5579 5579 5581 5582 5583 5586 5590
5633 5631 5629 5626 5623 5620 5616 5613 5609 5606 5602 5599 5596 5592 5589 5586 5583 5579 5576 5574 5572 5570 5568 5566 5565 5564 5562 5562 5563 5565 5566 5565 5565 5566 5569 5571 5575 5579
5625 5624 5622 5619 5616 5612 5609 5606 5602 5598 5594 5590 5586 5583 5579 5576 5572 5569 5566 5565 5562 5559 5556 5554 5554 5554 5553 5552 5551 5552 5553 5553 5553 5553 5555 5556 5560 5563
5618 5616 5613 5611 5608 5604 5600 5596 5592 5588 5584 5580 5576 5573 5569 5566 5562 5559 5556 5553 5550 5548 5546 5544 5543 5542 5541 5539 5539 5539 5541 5542 5542 5542 5542 5543 5542 5545
5610 5607 5604 5602 5599 5595 5591 5588 5583 5579 5575 5571 5567 5563 5559 5555 5552 5549 5546 5543 5540 5538 5535 5533 5531 5530 5528 5527 5526 5527 5528 5529 5529 5530 5530 5530 5531 5533